Regional Weather Roundup
Issued by NWS

Home | Current Version | Previous Version | Graphics & Text | Print | Product List | Glossary On
Versions: 1 2 3 4 5 6 7 8 9 10 11 12 13 14 15 16 17 18 19 20 21 22 23 24 25 26 27 28 29 30 31 32 33 34 35 36 37 38 39 40 41 42 43 44 45 46 47 48 49 50
000
ASUS43 KLSX 171859
RWRMO

WEATHER SUMMARY FOR MISSOURI
NATIONAL WEATHER SERVICE SPRINGFIELD MO
100 PM CST WED DEC 17 2014

NOTE: "FAIR" INDICATES FEW OR NO CLOUDS BELOW 12,000 FEET WITH NO
       SIGNIFICANT WEATHER AND/OR OBSTRUCTIONS TO VISIBILITY.
       CURRENT SKY AND/OR WEATHER CONDITIONS ARE NOT AVAILABLE FOR
       CHILLICOTHE AND FARMINGTON.

MOZ001>031-035>038-043-044-053-054-172000-
...NORTHERN AND WESTERN MISSOURI...

CITY           SKY/WX    TMP DP  RH WIND       PRES   REMARKS
KANSAS CTY INT CLOUDY    28  19  69 CALM      30.29F
KANSAS C DTWN  CLOUDY    30  19  63 CALM      30.31F
LEE`S SUMMIT   CLOUDY    29  19  66 CALM      30.30F
ST JOSEPH      CLOUDY    28  19  69 N3        30.31F
CHILLICOTHE      N/A     27  20  75 SW3       30.34R
KIRKSVILLE     SUNNY     28  20  71 VRB3      30.29F

$$
MOZ066>068-077>081-088>096-101>105-172000-
...SOUTHWEST MISSOURI...

CITY           SKY/WX    TMP DP  RH WIND       PRES   REMARKS
SPRINGFIELD    CLOUDY    32  25  75 VRB3      30.27F
JOPLIN         MIX PCPN  32  26  78 E7        30.28F WCI  26

$$
MOZ032>034-039>042-045>050-055>058-069>072-172000-
...CENTRAL MISSOURI...

CITY           SKY/WX    TMP DP  RH WIND       PRES   REMARKS
COLUMBIA       SUNNY     33  22  63 W8        30.29R WCI  26
JEFFERSON CITY MOSUNNY   35  21  56 W8        30.31R WCI  29
ROLLA          MOSUNNY   34  22  61 W9        30.26R WCI  27
SEDALIA        PTSUNNY   32  21  64 N5        30.30F WCI  27
WARRENSBURG    CLOUDY    30  21  69 CALM      30.30F
OSAGE BEACH    CLOUDY    34  19  55 N3        30.29F

$$
MOZ051-052-059>065-172000-
...EAST CENTRAL MISSOURI...

CITY           SKY/WX    TMP DP  RH WIND       PRES   REMARKS
ST LOUIS INTL  MOSUNNY   38  24  57 N7        30.28F
SPIRIT OF STL  SUNNY     38  24  57 CALM      30.27F

$$
MOZ072>076-082>087-097>100-106>115-172000-
...SOUTH CENTRAL AND SOUTHEAST MISSOURI...

CITY           SKY/WX    TMP DP  RH WIND       PRES   REMARKS
CAPE GIRARDEAU SUNNY     37  27  67 W3        30.29F
FARMINGTON     SUNNY     37  25  60 CALM      30.26F
POPLAR BLUFF   PTSUNNY   37  25  61 CALM      30.28F
WEST PLAINS    CLOUDY    38  25  59 SW5       30.26F

$$



USA.gov is the U.S. government's official web portal to all federal, state and local government web resources and services.